星链-2068 (STARLINK-2068 )

导读

STARLINK-2068是美国太空探索技术公司Starlink星链互联网星座的一员,于2021年3月4日在美国发射升空。星链项目旨在构建全球卫星互联网,该卫星承担低轨信号转发任务,为全球偏远、无网络覆盖区域提供高速互联网接入服务,进一步完善了星链低轨卫星通信网络的覆盖能力。

Basic Information
目录编号:
47722
目录名称:
STARLINK-2068
国际标识:
2021-017A
轨道中心:
EARTH
卫星名称:
星链-2068
卫星全名:
星链-2068 (STARLINK-2068 )
卫星状态:
在轨 (已飞行2010 天)
发射日期:
2021-03-04 UTC
国别 :
美国 (US)
星等 :
--
Orbit Information
数据来源 国际轨道数据
星历时间: 2026-09-02T22:19:41+0800
1天前
查看轨道信息
半长轴: 6848.889km
偏心率: 0.0001015
轨道倾角: 53.160°
近地点辐角 97.683°
升交点赤经 87.750°
平近点角 262.428°
近地点: 470.056km
远地点: 471.448km
周期: 94.013分钟
每日圈数: 15.316963
Detailed Information
固有亮度:
5
最大亮度:
2.5
卫星平台:
Starlink V1.0
覆盖范围:
全球
运营商:
太空探索技术公司
运营商所在国:
美国
制造商(研发单位):
太空探索技术公司
制造商所在国:
美国
使用方式:
暂无
Satellite Introduction
星链(Starlink)计划是由太空探索技术公司(SpaceX)提出的一个巨型低轨卫星互联网星座项目,计划在2019年至2024年间在太空搭建由约1.2万颗卫星组成的“星链”网络,其中1584颗将部署在地球上空550千米处的近地轨道,并从2020年开始工作。该卫星仍在工作。
2D Orbit Map
3D Orbit Map
Orbit Altitude Analysis Chart
Orbit Inclination Analysis Chart
Orbit Comprehensive Analysis Chart
View Comprehensive Chart
Conjunction Data List
Event ID Objects TCA Miss Dist (km) Collision Risk Probability Collision Risk Index (CRI) Action
CDM_260827-193604-772206-524022
2026-08-27T
19:36:33+0000
2.640 km
极远距离
1.590941E-6 低风险 0.39
CDM_260904-093104-772206-955822
2026-09-04T
09:31:23+0000
2.651 km
极远距离
1.578674E-6 低风险 0.39
CDM_260830-185104-772206-948021
2026-08-30T
18:51:04+0000
2.686 km
极远距离
1.54549E-6 低风险 0.39
CDM_260904-044704-772206-930121
2026-09-04T
04:47:39+0000
2.846 km
极远距离
1.425685E-6 低风险 0.38
CDM_260827-223704-772206-814921
2026-08-27T
22:37:46+0000
2.998 km
极远距离
1.310816E-6 低风险 0.37